Flag for Germany Weather past 2 weeks in Rodgau, Hesse, Germany

Now
56 °F

Passing clouds.


Feels Like: 56 °F
Forecast: 52 / 68 °F
Wind: 1 mph from East

Location: Frankfurt / M-Flughafen

Current Time: Sep 3, 2015 at 1:57:08 AM

Latest Report: Sep 3, 2015 at 1:00 AM


Visibility: 22 mi

Pressure: 29.97 "Hg

Humidity: 96%

Dew point: 54 °F

Location of RodgauLocation

Historic Weather in Rodgau — Graph

°F

Rodgau temperature yesterday

Maximum temperature yesterday: 69 °F (at 4:00 PM)
Minimum temperature yesterday: 55 °F (at 3:00 AM)
Average temperature yesterday: 62 °F

Past Weeks' High & Low Weather Summary

 TemperatureHumidityPressure
High92 °F (Aug 31, 4:00 PM)100% (Aug 29, 6:00 AM)30.29 "Hg (Aug 29, 6:00 AM)
Low50 °F (Aug 19, 6:00 AM)21% (Aug 31, 6:00 PM)29.66 "Hg (Aug 23, 7:00 PM)
Average68 °F68%30.01 "Hg
* Reported Aug 18 10:00 PM — Sep 2 10:00 PM, Rodgau, Weather by CustomWeather, © 2015

Note: Actual official high and low records may vary slightly from our data, if they occured in-between our weather recording intervals... More about our weather records

Advertising

Rodgau weather history for previous 24 hours

 ConditionsComfort  
Time TempWeatherWind HumidityBarometerVisibility
10:00 PM
Wed, Sep 2
62 °FOvercast.2 mph76%30.00 "Hg28 mi
9:00 PM61 °FPassing clouds.2 mph70%29.99 "Hg28 mi
8:00 PM63 °FPartly sunny.2 mph65%29.98 "Hg28 mi
7:00 PM69 °FPartly sunny.3 mph43%29.98 "Hg28 mi
6:00 PM69 °FOvercast.5 mph47%29.98 "Hg31 mi
4:00 PM69 °FPartly sunny.2 mph50%29.99 "Hg28 mi
3:00 PM68 °FPartly sunny.3 mph56%30.00 "Hg25 mi
2:00 PM69 °FPartly sunny.2 mph56%30.02 "Hg25 mi
1:00 PM67 °FPartly sunny.1 mph62%30.03 "Hg19 mi
12:00 PM62 °FScattered clouds.2 mph72%30.05 "Hg19 mi
11:00 AM62 °FPartly sunny.2 mph68%30.06 "Hg16 mi
10:00 AM62 °FScattered clouds.2 mph79%30.06 "Hg12 mi
9:00 AM60 °FPartly sunny.1 mph81%30.06 "Hg11 mi
8:00 AM56 °FPartly sunny.2 mph100%30.07 "Hg14 mi
7:00 AM56 °FOvercast.1 mph99%30.06 "Hg11 mi
5:00 AM55 °FOvercast.1 mph100%30.07 "Hg9 mi
4:00 AM56 °FPassing clouds.1 mph100%30.07 "Hg12 mi
3:00 AM55 °FPassing clouds.1 mph100%30.07 "Hg12 mi
2:00 AM57 °FPassing clouds.2 mph95%30.07 "Hg19 mi
1:00 AM57 °FPassing clouds.3 mph97%30.06 "Hg28 mi
Weather by CustomWeather, © 2015

See weather overviewHow to use our weather pages